Content
SEND FEEDBACK

Daily
Averages
Monthly
Summary
United States of America

PYGA BEACH, GUAM


Home > North America > United States > Guam
Elevation: 20 feet     Latitude: 13 17N     Longitude: 144 39E

WEATHER
 
SELECT A DAY
Number of Records: 341,716;   Date Range: 1/1/95 - 7/22/14
 
SHARE

PRINT THIS DATA

[ ← Previous Day ]
WEATHER ALMANAC - JULY 27, 2013
[ Next Day → ]
[ °C ]   °F
Weather ElementAverageHighLow
Temperature81.6 °F86 °F (12:36 pm)77 °F (12:54 am)
Dewpoint76.1 °F78.8 °F (12:22 am)73 °F (7:55 am)
Humidity83.8 %100 % (12:54 am)66 % (1:26 pm)
Barometer29.84 in29.88 in (10:22 pm)29.80 in (3:55 pm)
Wind Speed10 mph16.1 mph (12:45 am)
Wind Gust19.6 mph (12:45 am)
Weather ElementAverage
Visibility9.6 mi
Wind DirectionE (84.9 °)

Weather ElementTotal
Precipitation0.07 in
Cooling Degree Days16.5 (Base 65)
Growing Degree Days31.5 (Base 50)
Averaged from 79 records on July 27, 2013
WEATHER CONDITIONS BREAKOUT
WIND DIRECTION BREAKOUT
WEATHER BY HOUR - JULY 27, 2013
[ °C ]   °F
Local TimeTemperatureDewpointHumidityBarometerVisibilityWind DirectionWind SpeedGust SpeedPrecipitationEventsConditions
12:22 AM80.6 °F78.8 °F94 %29.87 in10.0 miEast (90°)6.9 mphMostly Cloudy
12:31 AM80.6 °F78.8 °F94 %29.86 in10.0 miEast (90°)8.1 mphMostly Cloudy
12:33 AM80.6 °F78.8 °F94 %29.86 in10.0 miEast (90°)9.2 mphMostly Cloudy
12:39 AM80.6 °F78.8 °F94 %29.86 in10.0 miEast (90°)10.4 mphMostly Cloudy
12:42 AM80.6 °F78.8 °F94 %29.86 in10.0 miEast (90°)8.1 mphMostly Cloudy
12:45 AM80.6 °F77.0 °F89 %29.86 in5.0 miEast (100°)16.1 mph19.6 mphRainHeavy Rain
12:48 AM78.8 °F77.0 °F94 %29.86 in2.5 miESE (110°)12.7 mph19.6 mphRainHeavy Rain
12:54 AM77.0 °F77.0 °F100 %29.86 in3.0 miESE (110°)8.1 mphRainLight Rain
12:55 AM77.5 °F76.1 °F95 %29.86 in4.0 miESE (110°)6.9 mph0.06 inRainLight Rain
12:59 AM77.0 °F75.2 °F94 %29.86 in10.0 miSE (130°)6.9 mphScattered Clouds
1:00 AM77.0 °F75.2 °F94 %29.86 in10.0 miESE (120°)6.9 mphMostly Cloudy
1:03 AM77.0 °F75.2 °F94 %29.86 in10.0 miSE (130°)5.8 mphScattered Clouds
1:46 AM78.8 °F77.0 °F94 %29.85 in10.0 miESE (110°)3.5 mphMostly Cloudy
1:48 AM78.8 °F77.0 °F94 %29.85 in10.0 miEast (90°)3.5 mphMostly Cloudy
1:49 AM78.8 °F77.0 °F94 %29.84 in10.0 miEast (80°)3.5 mphMostly Cloudy
1:55 AM79.2 °F76.1 °F90 %29.85 in10.0 miCalm0.00 inMostly Cloudy
2:30 AM78.8 °F77.0 °F94 %29.84 in10.0 miEast (80°)9.2 mphScattered Clouds
2:38 AM78.8 °F77.0 °F94 %29.84 in10.0 miEast (80°)6.9 mphMostly Cloudy
2:43 AM78.8 °F75.2 °F89 %29.84 in10.0 miEast (80°)6.9 mphMostly Cloudy
2:55 AM79.2 °F75.7 °F89 %29.84 in10.0 miEast (80°)6.9 mphMostly Cloudy
3:55 AM79.3 °F74.8 °F86 %29.83 in10.0 miEast (80°)9.2 mphPartly Cloudy
4:55 AM79.3 °F74.5 °F85 %29.83 in10.0 miEast (90°)9.2 mphScattered Clouds
5:55 AM79.0 °F73.9 °F84 %29.83 in10.0 miEast (90°)10.4 mphScattered Clouds
6:55 AM79.7 °F73.9 °F82 %29.85 in10.0 miEast (80°)10.4 mphPartly Cloudy
7:55 AM81.3 °F73.0 °F76 %29.86 in10.0 miEast (90°)8.1 mphPartly Cloudy
8:18 AM80.6 °F73.4 °F79 %29.85 in10.0 miENE (70°)11.5 mphMostly Cloudy
8:55 AM81.9 °F73.8 °F76 %29.86 in10.0 miEast (90°)10.4 mphMostly Cloudy
8:58 AM82.4 °F73.4 °F74 %29.86 in10.0 miEast (80°)9.2 mphScattered Clouds
8:59 AM82.4 °F73.4 °F74 %29.86 in10.0 miEast (80°)8.1 mphMostly Cloudy
9:11 AM82.4 °F73.4 °F74 %29.86 in10.0 miEast (100°)11.5 mphScattered Clouds
9:47 AM84.2 °F73.4 °F70 %29.86 in10.0 miEast (80°)10.4 mphMostly Cloudy
9:55 AM84.2 °F73.6 °F70 %29.86 in10.0 miEast (90°)8.1 mphMostly Cloudy
10:13 AM84.2 °F73.4 °F70 %29.86 in10.0 miEast (80°)11.5 mphScattered Clouds
10:24 AM84.2 °F73.4 °F70 %29.86 in10.0 miEast (90°)11.5 mphMostly Cloudy
10:44 AM84.2 °F73.4 °F70 %29.86 in10.0 miEast (80°)11.5 mphScattered Clouds
10:55 AM84.4 °F73.4 °F69 %29.85 in10.0 miEast (80°)12.7 mphPartly Cloudy
11:55 AM84.4 °F74.5 °F72 %29.85 in10.0 miEast (90°)12.7 mphScattered Clouds
12:12 PM84.2 °F75.2 °F74 %29.84 in10.0 miEast (90°)10.4 mphMostly Cloudy
12:36 PM86.0 °F75.2 °F70 %29.84 in10.0 miENE (70°)11.5 mph18.4 mphMostly Cloudy
12:55 PM84.7 °F74.3 °F71 %29.83 in10.0 miENE (70°)12.7 mphMostly Cloudy
1:11 PM84.2 °F73.4 °F70 %29.83 in10.0 miEast (90°)11.5 mphMostly Cloudy
1:13 PM84.2 °F75.2 °F74 %29.83 in10.0 miENE (70°)10.4 mphMostly Cloudy
1:18 PM86.0 °F75.2 °F70 %29.83 in10.0 miEast (90°)10.4 mphMostly Cloudy
1:26 PM86.0 °F73.4 °F66 %29.83 in10.0 miEast (90°)12.7 mph18.4 mphScattered Clouds
1:39 PM84.2 °F75.2 °F74 %29.82 in10.0 miEast (90°)8.1 mphMostly Cloudy
1:47 PM84.2 °F75.2 °F74 %29.83 in9.0 miEast (80°)13.8 mphRainLight Rain
1:55 PM82.0 °F75.7 °F81 %29.82 in3.0 miENE (70°)10.4 mph0.01 inRainLight Rain
2:03 PM82.4 °F77.0 °F84 %29.82 in10.0 miENE (60°)10.4 mphMostly Cloudy
2:16 PM84.2 °F77.0 °F79 %29.82 in10.0 miEast (80°)11.5 mphScattered Clouds
2:21 PM84.2 °F77.0 °F79 %29.82 in10.0 miENE (70°)10.4 mphMostly Cloudy
2:28 PM82.4 °F77.0 °F84 %29.82 in10.0 miEast (90°)9.2 mphScattered Clouds
2:49 PM84.2 °F78.8 °F84 %29.81 in10.0 miENE (60°)10.4 mphMostly Cloudy
2:52 PM84.2 °F78.8 °F84 %29.81 in10.0 miEast (80°)9.2 mphScattered Clouds
2:55 PM83.8 °F78.4 °F84 %29.81 in10.0 miEast (80°)11.5 mph0.00 inScattered Clouds
2:57 PM84.2 °F78.8 °F84 %29.81 in10.0 miEast (90°)10.4 mphMostly Cloudy
2:59 PM84.2 °F78.8 °F84 %29.81 in10.0 miEast (90°)11.5 mphScattered Clouds
3:00 PM84.2 °F77.0 °F79 %29.81 in10.0 miEast (80°)12.7 mphMostly Cloudy
3:05 PM84.2 °F77.0 °F79 %29.81 in10.0 miENE (70°)10.4 mphScattered Clouds
3:55 PM84.6 °F75.4 °F74 %29.80 in10.0 miENE (70°)12.7 mphPartly Cloudy
4:55 PM84.0 °F77.5 °F81 %29.80 in10.0 miENE (70°)12.7 mphScattered Clouds
5:55 PM81.9 °F76.3 °F83 %29.82 in10.0 miENE (70°)11.5 mphClear
6:37 PM80.6 °F77.0 °F89 %29.83 in10.0 miEast (80°)10.4 mphMostly Cloudy
6:44 PM80.6 °F77.0 °F89 %29.83 in10.0 miENE (70°)12.7 mphScattered Clouds
6:48 PM80.6 °F77.0 °F89 %29.83 in10.0 miEast (80°)10.4 mphMostly Cloudy
6:55 PM81.0 °F77.0 °F88 %29.83 in10.0 miEast (80°)10.4 mphMostly Cloudy
6:59 PM80.6 °F77.0 °F89 %29.83 in10.0 miEast (80°)12.7 mphScattered Clouds
7:41 PM80.6 °F78.8 °F94 %29.84 in10.0 miEast (90°)11.5 mphMostly Cloudy
7:55 PM81.3 °F78.4 °F91 %29.85 in10.0 miEast (90°)10.4 mphMostly Cloudy
8:12 PM80.6 °F77.0 °F89 %29.85 in10.0 miEast (90°)13.8 mphScattered Clouds
8:55 PM80.8 °F78.4 °F93 %29.86 in10.0 miEast (90°)11.5 mphScattered Clouds
9:55 PM81.3 °F77.4 °F88 %29.87 in10.0 miEast (100°)10.4 mphPartly Cloudy
10:08 PM80.6 °F77.0 °F89 %29.87 in10.0 miEast (90°)9.2 mphMostly Cloudy
10:15 PM80.6 °F77.0 °F89 %29.87 in10.0 miEast (80°)11.5 mphScattered Clouds
10:18 PM80.6 °F77.0 °F89 %29.87 in10.0 miEast (80°)12.7 mphMostly Cloudy
10:22 PM80.6 °F77.0 °F89 %29.88 in10.0 miEast (80°)11.5 mphScattered Clouds
10:25 PM80.6 °F77.0 °F89 %29.88 in10.0 miEast (90°)10.4 mphMostly Cloudy
10:32 PM80.6 °F77.0 °F89 %29.87 in10.0 miEast (90°)12.7 mphScattered Clouds
10:55 PM80.6 °F76.6 °F88 %29.87 in10.0 miEast (80°)11.5 mphPartly Cloudy
11:55 PM80.6 °F76.8 °F88 %29.86 in10.0 miEast (100°)10.4 mphScattered Clouds
Hourly data recorded from PGUA, located miles away from Pyga Beach, Guam







STORIES FROM OUR PARTNERS